星链-37352(STARLINK-37352)

导读

STARLINK-37352(NORAD编号69524)是美国太空探索技术公司(SpaceX)星链低轨通信星座的组成卫星,采用Starlink V1.0平台。卫星轨道半长轴6861.16km,轨道倾角43.0°,运行在近地点482.3km、远地点483.8km的近地轨道,轨道周期约94.3分钟,每日绕地约15.3圈。其主要承担全球卫星互联网接入服务任务,可向全球偏远地区、航空海事等场景提供高速低延迟通信支持,当前在轨运行状态正常,是星链组网扩展阶段的部署卫星之一。

基本信息
目录编号:
69524
目录名称:
STARLINK-37352
国际标识:
2026-133S
轨道中心:
EARTH
卫星名称:
星链-37352
卫星全名:
星链-37352(STARLINK-37352)
卫星状态:
在轨 (已飞行84 天)
发射日期:
2026-06-12 UTC
国别 :
美国 (US)
星等 :
--
轨道信息
数据来源 国际轨道数据
星历时间: 2026-09-04T03:21:41+0800
9小时前
查看轨道信息
半长轴: 6840.856km
偏心率: 0.0001075
轨道倾角: 53.158°
近地点辐角 75.729°
升交点赤经 307.578°
平近点角 284.383°
近地点: 461.983km
远地点: 463.455km
周期: 93.848分钟
每日圈数: 15.343948
详细信息
固有亮度:
5
最大亮度:
2.5
卫星平台:
Starlink V1.0
覆盖范围:
全球
运营商:
太空探索技术公司
运营商所在国:
美国
制造商(研发单位):
太空探索技术公司
制造商所在国:
美国
使用方式:
暂无
卫星简介
Starlink 计划是 SpaceX 推出的全球卫星互联网项目,通过发射低轨道卫星,为全球尤其是偏远地区提供高速、低延迟的互联网服务。自 2019 年起,Starlink 已部署数千颗卫星,旨在缩小全球数字鸿沟,推动互联网普及。该项目还为军事、航空等行业提供通信支持,带来广泛经济效益。
2D轨道图
3D轨道图
轨道高度分析图
轨道倾角分析图
轨道综合分析图
查看轨道综合分析图